This is the latest recevied weather packets stored in our database for station/object OK2ILA-6. If no packets are shown the sender has not sent any weather packets the latest 10 day(s).
| Time | Temp. | Humidity | Pressure | Rain* | Wind** | Luminosity | Snow |
|---|---|---|---|---|---|---|---|
| 1787752202 | 21.11° C | 63% | 1019.6 hPa | - | - | - | - |
| 1787751603 | 21.11° C | 62% | 1019.8 hPa | - | - | - | - |
| 1787751003 | 21.11° C | 62% | 1019.6 hPa | - | - | - | - |
| 1787750403 | 22.22° C | 60% | 1019.7 hPa | - | - | - | - |
| 1787749802 | 22.22° C | 58% | 1019.8 hPa | - | - | - | - |
| 1787749202 | 22.22° C | 58% | 1019.9 hPa | - | - | - | - |
| 1787748603 | 22.22° C | 58% | 1019.8 hPa | - | - | - | - |
| 1787748003 | 21.11° C | 60% | 1019.9 hPa | - | - | - | - |
| 1787747403 | 21.11° C | 61% | 1019.8 hPa | - | - | - | - |
| 1787746802 | 21.11° C | 63% | 1019.6 hPa | - | - | - | - |
| 1787746203 | 21.11° C | 64% | 1019.8 hPa | - | - | - | - |
| 1787745603 | 20.56° C | 65% | 1019.8 hPa | - | - | - | - |
| 1787745003 | 20° C | 66% | 1019.9 hPa | - | - | - | - |
| 1787744403 | 20° C | 67% | 1020 hPa | - | - | - | - |
| 1787743802 | 20° C | 68% | 1020 hPa | - | - | - | - |
| 1787743203 | 20.56° C | 68% | 1020 hPa | - | - | - | - |
| 1787742603 | 21.11° C | 66% | 1020 hPa | - | - | - | - |
| 1787742003 | 21.11° C | 64% | 1020.1 hPa | - | - | - | - |
| 1787741402 | 21.67° C | 62% | 1019.8 hPa | - | - | - | - |
| 1787740802 | 21.11° C | 64% | 1020 hPa | - | - | - | - |
| 1787740203 | 21.11° C | 66% | 1020 hPa | - | - | - | - |
| 1787739603 | 20° C | 68% | 1019.9 hPa | - | - | - | - |
| 1787739003 | 20° C | 69% | 1020 hPa | - | - | - | - |
| 1787738402 | 20° C | 70% | 1020 hPa | - | - | - | - |
| 1787737802 | 19.44° C | 72% | 1020 hPa | - | - | - | - |
* Rain since midnight (hover to see other rain measurements)
** Current wind speed in m/s (hover to see current wind gust speed)